SAS091 ESSA-ESSV

Flight info

Callsign SAS091
Flight time 0h 27m
Altitude 15000
Route BABAP T316 GOTAL
Aircraft CRJ9/M-SDFGIRWY/S

Departure

Time 2026-04-25 15:00
Airport Stockholm-Arlanda Airport (ESSA)

Arrival

Time 2026-04-25 15:28
Airport Visby Airport (ESSV)
Time Latitude Longitude Altitude Speed Heading
2026-04-25 14:32 59.65140 17.92798 110 ft 0 kts 190°
2026-04-25 14:53 59.65156 17.92803 108 ft 4 kts 189°
2026-04-25 14:53 59.65182 17.92811 110 ft 4 kts 188°
2026-04-25 14:53 59.65209 17.92817 109 ft 4 kts 185°
2026-04-25 14:53 59.65236 17.92819 108 ft 4 kts 177°
2026-04-25 14:54 59.65262 17.92809 109 ft 4 kts 157°
2026-04-25 14:54 59.65268 17.92804 109 ft 0 kts 152°
2026-04-25 14:56 59.65264 17.92808 109 ft 2 kts 152°
2026-04-25 14:56 59.65252 17.92818 107 ft 0 kts 175°
2026-04-25 14:56 59.65242 17.92812 107 ft 2 kts 224°
2026-04-25 14:56 59.65246 17.92782 109 ft 3 kts 336°
2026-04-25 14:57 59.65313 17.92752 109 ft 15 kts 339°
2026-04-25 14:57 59.65407 17.92682 110 ft 14 kts 21°
2026-04-25 14:57 59.65455 17.92790 110 ft 14 kts 68°
2026-04-25 14:57 59.65487 17.92983 110 ft 16 kts 71°
2026-04-25 14:58 59.65517 17.93185 109 ft 14 kts 76°
2026-04-25 14:58 59.65570 17.93312 109 ft 14 kts 353°
2026-04-25 14:58 59.65652 17.93320 107 ft 6 kts 41°
2026-04-25 14:58 59.65679 17.93384 107 ft 7 kts 51°
2026-04-25 14:59 59.65709 17.93463 109 ft 8 kts 50°
2026-04-25 14:59 59.65748 17.93543 111 ft 9 kts 44°
2026-04-25 14:59 59.65798 17.93643 114 ft 11 kts 46°
2026-04-25 14:59 59.65857 17.93759 115 ft 10 kts 55°
2026-04-25 15:00 59.65901 17.94071 118 ft 52 kts 75°
2026-04-25 15:00 59.66051 17.95243 116 ft 121 kts 76°
2026-04-25 15:00 59.66300 17.97200 222 ft 163 kts 71°
2026-04-25 15:00 59.66524 17.99380 1091 ft 161 kts 72°
2026-04-25 15:01 59.66706 18.01077 1807 ft 156 kts 69°
2026-04-25 15:01 59.66984 18.03284 2158 ft 181 kts 69°
2026-04-25 15:01 59.67339 18.05881 2482 ft 208 kts 69°
2026-04-25 15:01 59.67718 18.08802 2970 ft 228 kts 70°
2026-04-25 15:02 59.68080 18.11971 3542 ft 244 kts 72°
2026-04-25 15:02 59.68428 18.15331 4242 ft 253 kts 72°
2026-04-25 15:02 59.68789 18.18863 4646 ft 275 kts 72°
2026-04-25 15:02 59.69180 18.22603 5510 ft 273 kts 72°
2026-04-25 15:03 59.69576 18.26285 6458 ft 269 kts 71°
2026-04-25 15:03 59.69968 18.29881 7339 ft 269 kts 71°
2026-04-25 15:03 59.70325 18.33564 8036 ft 276 kts 76°
2026-04-25 15:03 59.70550 18.37370 8713 ft 282 kts 79°
2026-04-25 15:04 59.70333 18.41294 9373 ft 299 kts 108°
2026-04-25 15:04 59.69097 18.44664 10018 ft 310 kts 140°
2026-04-25 15:04 59.67139 18.46601 10366 ft 325 kts 168°
2026-04-25 15:04 59.64873 18.47370 10720 ft 338 kts 174°
2026-04-25 15:05 59.62511 18.47933 11181 ft 346 kts 177°
2026-04-25 15:05 59.60282 18.48289 11809 ft 348 kts 179°
2026-04-25 15:05 59.57858 18.48588 12467 ft 350 kts 180°
2026-04-25 15:06 59.52955 18.49111 13756 ft 355 kts 181°
2026-04-25 15:06 59.50470 18.49320 14260 ft 361 kts 182°
2026-04-25 15:06 59.47938 18.49494 14495 ft 365 kts 181°
2026-04-25 15:06 59.45418 18.49782 14587 ft 361 kts 179°
2026-04-25 15:07 59.42922 18.50151 14609 ft 359 kts 180°
2026-04-25 15:07 59.40428 18.50514 14639 ft 359 kts 180°
2026-04-25 15:07 59.37934 18.50855 14652 ft 360 kts 180°
2026-04-25 15:07 59.35437 18.51173 14660 ft 360 kts 180°
2026-04-25 15:08 59.32929 18.51482 14663 ft 361 kts 180°
2026-04-25 15:08 59.30418 18.51801 14666 ft 362 kts 180°
2026-04-25 15:08 59.27900 18.52132 14665 ft 363 kts 180°
2026-04-25 15:08 59.25377 18.52442 14663 ft 363 kts 180°
2026-04-25 15:09 59.22851 18.52735 14661 ft 364 kts 180°
2026-04-25 15:09 59.20319 18.53064 14650 ft 366 kts 180°
2026-04-25 15:09 59.15208 18.53722 14645 ft 370 kts 180°
2026-04-25 15:10 59.12638 18.54057 14628 ft 371 kts 180°
2026-04-25 15:10 59.10055 18.54393 14642 ft 372 kts 181°
2026-04-25 15:10 59.04886 18.55044 14638 ft 372 kts 181°
2026-04-25 15:11 59.02308 18.55367 14646 ft 371 kts 181°
2026-04-25 15:11 58.99878 18.55676 14640 ft 370 kts 181°
2026-04-25 15:11 58.97598 18.55968 14646 ft 370 kts 181°
2026-04-25 15:12 58.92473 18.56591 14642 ft 367 kts 183°
2026-04-25 15:12 58.89934 18.56441 14636 ft 363 kts 190°
2026-04-25 15:12 58.87425 18.55942 14636 ft 362 kts 191°
2026-04-25 15:12 58.86580 18.55759 14633 ft 362 kts 191°
2026-04-25 15:13 58.82421 18.54927 14575 ft 363 kts 191°
2026-04-25 15:13 58.77362 18.54125 13635 ft 361 kts 190°
2026-04-25 15:13 58.74871 18.53737 13446 ft 358 kts 190°
2026-04-25 15:14 58.72394 18.53350 13313 ft 356 kts 190°
2026-04-25 15:14 58.69927 18.52976 13158 ft 355 kts 190°
2026-04-25 15:14 58.67472 18.52597 13021 ft 353 kts 190°
2026-04-25 15:14 58.65027 18.52223 12879 ft 352 kts 190°
2026-04-25 15:15 58.62587 18.51850 12736 ft 351 kts 190°
2026-04-25 15:15 58.60164 18.51477 12596 ft 350 kts 190°
2026-04-25 15:15 58.57733 18.51111 12451 ft 349 kts 190°
2026-04-25 15:15 58.55315 18.50740 12312 ft 348 kts 190°
2026-04-25 15:16 58.52900 18.50382 12145 ft 348 kts 190°
2026-04-25 15:16 58.50498 18.50013 12008 ft 347 kts 190°
2026-04-25 15:16 58.45682 18.49277 11740 ft 348 kts 190°
2026-04-25 15:17 58.40848 18.48544 11467 ft 349 kts 190°
2026-04-25 15:17 58.38494 18.48199 11333 ft 336 kts 190°
2026-04-25 15:17 58.36209 18.47864 11182 ft 323 kts 190°
2026-04-25 15:18 58.34008 18.47532 11033 ft 312 kts 190°
2026-04-25 15:18 58.29779 18.46869 10731 ft 300 kts 191°
2026-04-25 15:18 58.27701 18.46545 10591 ft 300 kts 190°
2026-04-25 15:19 58.25619 18.46221 10425 ft 301 kts 190°
2026-04-25 15:19 58.24910 18.46106 10376 ft 302 kts 189°
2026-04-25 15:19 58.21375 18.45943 9898 ft 309 kts 183°
2026-04-25 15:19 58.19234 18.46043 9527 ft 307 kts 182°
2026-04-25 15:20 58.17106 18.46146 9088 ft 305 kts 182°
2026-04-25 15:20 58.14990 18.46235 8652 ft 303 kts 182°
2026-04-25 15:20 58.12885 18.46273 8264 ft 299 kts 183°
2026-04-25 15:20 58.10820 18.46294 7867 ft 297 kts 183°
2026-04-25 15:21 58.08757 18.46300 7430 ft 296 kts 183°
2026-04-25 15:21 58.06700 18.46308 7003 ft 295 kts 183°
2026-04-25 15:21 58.04657 18.46311 6602 ft 292 kts 182°
2026-04-25 15:21 58.02625 18.46316 6198 ft 289 kts 182°
2026-04-25 15:22 58.00608 18.46301 5717 ft 289 kts 183°
2026-04-25 15:22 57.98929 18.46287 5291 ft 289 kts 182°
2026-04-25 15:22 57.96944 18.46275 5043 ft 280 kts 182°
2026-04-25 15:22 57.95022 18.46234 4806 ft 272 kts 182°
2026-04-25 15:23 57.93151 18.46190 4552 ft 266 kts 182°
2026-04-25 15:23 57.91318 18.46134 4291 ft 261 kts 182°
2026-04-25 15:23 57.89513 18.46064 4016 ft 257 kts 182°
2026-04-25 15:23 57.87744 18.45984 3851 ft 248 kts 182°
2026-04-25 15:24 57.86101 18.45906 3745 ft 228 kts 182°
2026-04-25 15:24 57.84559 18.45839 3565 ft 216 kts 182°
2026-04-25 15:24 57.83097 18.45713 3353 ft 206 kts 188°
2026-04-25 15:24 57.82638 18.45610 3286 ft 203 kts 188°
2026-04-25 15:25 57.80415 18.44682 3044 ft 194 kts 200°
2026-04-25 15:25 57.79113 18.43863 2799 ft 201 kts 203°
2026-04-25 15:25 57.77780 18.42895 2503 ft 209 kts 204°
2026-04-25 15:25 57.76426 18.41900 2219 ft 209 kts 203°
2026-04-25 15:26 57.75073 18.40924 1875 ft 206 kts 202°
2026-04-25 15:26 57.73779 18.39984 1649 ft 189 kts 203°
2026-04-25 15:26 57.72605 18.39148 1402 ft 175 kts 201°
2026-04-25 15:26 57.71468 18.38357 1165 ft 173 kts 200°
2026-04-25 15:27 57.70369 18.37604 861 ft 166 kts 201°
2026-04-25 15:27 57.69328 18.36781 605 ft 157 kts 201°
2026-04-25 15:27 57.67314 18.35361 246 ft 153 kts 199°
2026-04-25 15:28 57.66401 18.34687 145 ft 117 kts 201°
2026-04-25 15:28 57.65885 18.34332 146 ft 43 kts 201°
2026-04-25 15:28 57.65643 18.34162 151 ft 26 kts 201°
2026-04-25 15:28 57.65540 18.34077 144 ft 16 kts 201°
2026-04-25 15:29 57.65443 18.34008 147 ft 10 kts 206°
2026-04-25 15:29 57.65417 18.33941 147 ft 6 kts 250°
2026-04-25 15:29 57.65410 18.33879 147 ft 5 kts 267°
2026-04-25 15:29 57.65420 18.33815 148 ft 6 kts 303°
2026-04-25 15:30 57.65453 18.33758 149 ft 7 kts 340°
2026-04-25 15:30 57.65510 18.33748 147 ft 10 kts 14°
2026-04-25 15:30 57.65584 18.33799 147 ft 12 kts 21°
2026-04-25 15:30 57.65662 18.33856 148 ft 11 kts 21°
2026-04-25 15:31 57.65737 18.33910 148 ft 12 kts 21°
2026-04-25 15:31 57.65817 18.33967 148 ft 12 kts 21°
2026-04-25 15:31 57.65900 18.34027 146 ft 12 kts 21°
2026-04-25 15:31 57.65980 18.34085 143 ft 8 kts 21°
2026-04-25 15:32 57.66018 18.34057 152 ft 6 kts 297°
2026-04-25 15:32 57.66034 18.33991 143 ft 5 kts 294°
2026-04-25 15:32 57.66046 18.33960 144 ft 3 kts 326°
2026-04-25 15:33 57.66058 18.33947 144 ft 0 kts 334°